Hayward, CA

2:30 AM PDT on October 24, 2017 (GMT -0700)
Hayward Executive

Weather History for KHWD - May, 2013

Change the Weather History Date:

Monday, May 27, 2013

  Actual Average Record
Temperature  
Mean Temperature 59 °F 62 °F  
Max Temperature 63 °F 70 °F 86 °F (2003)
Min Temperature 55 °F 54 °F 52 °F (2010)
Degree Days  
Heating Degree Days 6    
Month to date heating degree days 97  
Since 1 July heating degree days 2267  
Cooling Degree Days 0    
Month to date cooling degree days 34  
Year to date cooling degree days 47  
Growing Degree Days 9 (Base 50)    
Moisture  
Dew Point 52 °F    
Average Humidity 79    
Maximum Humidity 86    
Minimum Humidity 72    
Precipitation  
Precipitation 0.03 in - 0.03 in (2013)
Month to date precipitation 0.03  
Year to date precipitation 1.48  
Since 1 July precipitation 7.46  
Sea Level Pressure  
Sea Level Pressure 30.12 in    
Wind  
Wind Speed 8 mph (West)    
Max Wind Speed 15 mph    
Max Gust Speed 25 mph    
Visibility 10 miles    
Events Rain    
T = Trace of Precipitation, MM = Missing Value Source: NWS Daily Summary

Daily Weather History Graph

Daily Weather History Graph

Search for Another Location

Airport or City:

Trip Planner

Search our weather history database for the weather conditions in past years. The results will help you decide how hot, cold, wet, or windy it might be!

Date:

Astronomy

May. 27, 2013 Rise Set
Actual Time 5:50 AM PDT 8:21 PM PDT
Civil Twilight 5:20 AM PDT 8:51 PM PDT
Nautical Twilight 4:42 AM PDT 9:29 PM PDT
Astronomical Twilight 4:01 AM PDT 10:11 PM PDT
Moon 11:06 PM PDT (5/27) 8:33 AM PDT (5/27)
Length of Visible Light 15h 31m
Length of Day
14h 30m
Waning Gibbous, 90% of the Moon is Illuminated
May 27
Waning Gibbous
May 31
Last Quarter
Jun 8
New
Jun 16
First Quarter
Jun 23
Full

Hourly Weather History & Observations

Time (PDT) Temp. Dew Point Humidity Pressure Visibility Wind Dir Wind Speed Gust Speed Precip Events Conditions
12:33 AM 55.4 °F 50.0 °F 82% 30.15 in 10.0 mi West 8.1 mph 16.1 mph N/A   Mostly Cloudy
12:54 AM 55.9 °F 50.0 °F 80% 30.18 in 10.0 mi West 8.1 mph - N/A   Overcast
1:11 AM 55.4 °F 51.8 °F 88% 30.14 in 10.0 mi West 10.4 mph - N/A   Overcast
1:42 AM 55.4 °F 51.8 °F 88% 30.14 in 10.0 mi West 10.4 mph - N/A   Overcast
1:54 AM 55.9 °F 50.0 °F 80% 30.17 in 10.0 mi West 10.4 mph - N/A   Mostly Cloudy
2:02 AM 55.4 °F 50.0 °F 82% 30.14 in 10.0 mi West 10.4 mph 17.3 mph N/A   Mostly Cloudy
2:54 AM 55.9 °F 50.0 °F 80% 30.15 in 10.0 mi WNW 12.7 mph - N/A   Scattered Clouds
3:43 AM 55.4 °F 50.0 °F 82% 30.12 in 10.0 mi WNW 9.2 mph - N/A   Mostly Cloudy
3:54 AM 55.9 °F 50.0 °F 80% 30.15 in 10.0 mi West 9.2 mph - N/A   Mostly Cloudy
4:52 AM 55.4 °F 50.0 °F 82% 30.11 in 10.0 mi WNW 10.4 mph - N/A   Mostly Cloudy
4:54 AM 55.0 °F 50.0 °F 83% 30.14 in 10.0 mi WNW 10.4 mph - N/A   Mostly Cloudy
5:15 AM 55.4 °F 50.0 °F 82% 30.10 in 10.0 mi WNW 9.2 mph - N/A   Scattered Clouds
5:22 AM 55.4 °F 50.0 °F 82% 30.10 in 10.0 mi WNW 8.1 mph - N/A   Mostly Cloudy
5:33 AM 55.4 °F 50.0 °F 82% 30.10 in 10.0 mi West 5.8 mph - N/A   Scattered Clouds
5:43 AM 55.4 °F 50.0 °F 82% 30.10 in 10.0 mi West 6.9 mph - N/A   Mostly Cloudy
5:54 AM 55.9 °F 51.1 °F 84% 30.13 in 10.0 mi West 4.6 mph - N/A   Mostly Cloudy
6:54 AM 55.9 °F 51.1 °F 84% 30.14 in 10.0 mi Calm Calm - N/A   Scattered Clouds
7:26 AM 57.2 °F 51.8 °F 82% 30.11 in 10.0 mi West 6.9 mph - N/A   Mostly Cloudy
7:54 AM 57.0 °F 53.1 °F 87% 30.14 in 10.0 mi West 6.9 mph - N/A   Overcast
8:54 AM 57.9 °F 54.0 °F 87% 30.15 in 10.0 mi West 9.2 mph - N/A   Overcast
9:17 AM 57.2 °F 53.6 °F 88% 30.12 in 10.0 mi West 11.5 mph - N/A   Overcast
9:54 AM 60.1 °F 54.0 °F 80% 30.15 in 10.0 mi WNW 9.2 mph - N/A   Mostly Cloudy
10:54 AM 61.0 °F 54.0 °F 78% 30.14 in 10.0 mi West 6.9 mph - N/A   Overcast
11:24 AM 62.6 °F 53.6 °F 72% 30.11 in 10.0 mi West 8.1 mph - N/A   Scattered Clouds
11:54 AM 62.1 °F 54.0 °F 75% 30.15 in 10.0 mi West 10.4 mph - N/A   Overcast
12:54 PM 61.0 °F 53.1 °F 75% 30.16 in 10.0 mi WNW 8.1 mph - N/A   Mostly Cloudy
1:54 PM 63.0 °F 54.0 °F 72% 30.16 in 10.0 mi West 11.5 mph - 0.00 in   Mostly Cloudy
2:54 PM 62.1 °F 54.0 °F 75% 30.15 in 10.0 mi WNW 13.8 mph - N/A   Overcast
3:54 PM 62.1 °F 54.0 °F 75% 30.15 in 10.0 mi WNW 11.5 mph - N/A   Overcast
4:01 PM 62.6 °F 53.6 °F 72% 30.12 in 10.0 mi WNW 9.2 mph - N/A   Overcast
4:31 PM 60.8 °F 53.6 °F 77% 30.11 in 10.0 mi West 10.4 mph - N/A   Overcast
4:54 PM 60.1 °F 53.1 °F 78% 30.14 in 10.0 mi WNW 6.9 mph - N/A   Overcast
5:27 PM 60.8 °F 53.6 °F 77% 30.10 in 10.0 mi WNW 8.1 mph - N/A   Overcast
5:54 PM 60.1 °F 52.0 °F 75% 30.13 in 10.0 mi WNW 9.2 mph - N/A   Overcast
6:54 PM 60.1 °F 53.1 °F 78% 30.10 in 10.0 mi West 8.1 mph - N/A   Overcast
7:54 PM 61.0 °F 53.1 °F 75% 30.09 in 10.0 mi West 5.8 mph - N/A   Overcast
8:51 PM 60.8 °F 53.6 °F 77% 30.04 in 10.0 mi WSW 4.6 mph - N/A   Overcast
8:54 PM 60.1 °F 53.1 °F 78% 30.07 in 10.0 mi SW 6.9 mph - N/A   Overcast
9:08 PM 60.8 °F 53.6 °F 77% 30.04 in 10.0 mi SW 4.6 mph - N/A   Overcast
9:54 PM 61.0 °F 54.0 °F 78% 30.06 in 10.0 mi WSW 6.9 mph - N/A   Overcast
10:54 PM 60.1 °F 55.0 °F 83% 30.07 in 5.0 mi WSW 9.2 mph - 0.01 in Rain Light Rain
11:24 PM 59.0 °F 55.4 °F 88% 30.03 in 7.0 mi WSW 5.8 mph - 0.02 in Rain Light Rain
11:54 PM 59.0 °F 55.9 °F 90% 30.04 in 10.0 mi SW 6.9 mph - 0.02 in   Overcast